Year,Month,Day,Hour,Minute,Value (Times are PST for temperature in C)
2007,08,02,00,00,16.80
2007,08,02,00,01,16.80
2007,08,02,00,02,16.80
2007,08,02,00,03,16.80
2007,08,02,00,04,16.80
2007,08,02,00,05,16.80
2007,08,02,00,06,16.80
2007,08,02,00,07,16.80
2007,08,02,00,08,16.90
2007,08,02,00,09,16.90
2007,08,02,00,10,16.90
2007,08,02,00,11,16.90
2007,08,02,00,12,16.90
2007,08,02,00,13,16.90
2007,08,02,00,14,16.90
2007,08,02,00,15,16.80
2007,08,02,00,16,16.80
2007,08,02,00,17,16.80
2007,08,02,00,18,16.80
2007,08,02,00,19,16.80
2007,08,02,00,20,16.80
2007,08,02,00,21,16.80
2007,08,02,00,22,16.70
2007,08,02,00,23,16.70
2007,08,02,00,24,16.70
2007,08,02,00,25,16.70
2007,08,02,00,26,16.70
2007,08,02,00,27,16.70
2007,08,02,00,28,16.70
2007,08,02,00,29,16.70
2007,08,02,00,30,16.70
2007,08,02,00,31,16.70
2007,08,02,00,32,16.70
2007,08,02,00,33,16.70
2007,08,02,00,34,16.70
2007,08,02,00,35,16.70
2007,08,02,00,36,16.70
2007,08,02,00,37,16.70
2007,08,02,00,38,16.70
2007,08,02,00,39,16.70
2007,08,02,00,40,16.70
2007,08,02,00,41,16.60
2007,08,02,00,42,16.60
2007,08,02,00,43,16.50
2007,08,02,00,44,16.40
2007,08,02,00,45,16.40
2007,08,02,00,46,16.40
2007,08,02,00,47,16.40
2007,08,02,00,48,16.40
2007,08,02,00,49,16.40
2007,08,02,00,50,16.40
2007,08,02,00,51,16.40
2007,08,02,00,52,16.40
2007,08,02,00,53,16.30
2007,08,02,00,54,16.30
2007,08,02,00,55,16.30
2007,08,02,00,56,16.30
2007,08,02,00,57,16.30
2007,08,02,00,58,16.30
2007,08,02,00,59,16.20
2007,08,02,01,00,16.20
2007,08,02,01,01,16.20
2007,08,02,01,02,16.20
2007,08,02,01,03,16.20
2007,08,02,01,04,16.20
2007,08,02,01,05,16.20
2007,08,02,01,06,16.10
2007,08,02,01,07,16.10
2007,08,02,01,08,16.10
2007,08,02,01,09,16.10
2007,08,02,01,10,16.10
2007,08,02,01,11,16.10
2007,08,02,01,12,16.10
2007,08,02,01,13,16.10
2007,08,02,01,14,16.10
2007,08,02,01,15,16.20
2007,08,02,01,16,16.20
2007,08,02,01,17,16.20
2007,08,02,01,18,16.20
2007,08,02,01,19,16.20
2007,08,02,01,20,16.30
2007,08,02,01,21,16.30
2007,08,02,01,22,16.30
2007,08,02,01,23,16.30
2007,08,02,01,24,16.30
2007,08,02,01,25,16.30
2007,08,02,01,26,16.30
2007,08,02,01,27,16.30
2007,08,02,01,28,16.30
2007,08,02,01,29,16.40
2007,08,02,01,30,16.40
2007,08,02,01,31,16.40
2007,08,02,01,32,16.30
2007,08,02,01,33,16.30
2007,08,02,01,34,16.30
2007,08,02,01,35,16.30
2007,08,02,01,36,16.20
2007,08,02,01,37,16.20
2007,08,02,01,38,16.20
2007,08,02,01,39,16.20
2007,08,02,01,40,16.20
2007,08,02,01,41,16.20
2007,08,02,01,42,16.20
2007,08,02,01,43,16.20
2007,08,02,01,44,16.20
2007,08,02,01,45,16.20
2007,08,02,01,46,16.20
2007,08,02,01,47,16.20
2007,08,02,01,48,16.30
2007,08,02,01,49,16.30
2007,08,02,01,50,16.30
2007,08,02,01,51,16.40
2007,08,02,01,52,16.40
2007,08,02,01,53,16.40
2007,08,02,01,54,16.40
2007,08,02,01,55,16.40
2007,08,02,01,56,16.40
2007,08,02,01,57,16.40
2007,08,02,01,58,16.40
2007,08,02,01,59,16.40
2007,08,02,02,00,16.40
2007,08,02,02,01,16.40
2007,08,02,02,02,16.40
2007,08,02,02,03,16.40
2007,08,02,02,04,16.40
2007,08,02,02,05,16.40
2007,08,02,02,06,16.40
2007,08,02,02,07,16.40
2007,08,02,02,08,16.30
2007,08,02,02,09,16.30
2007,08,02,02,10,16.30
2007,08,02,02,11,16.30
2007,08,02,02,12,16.30
2007,08,02,02,13,16.30
2007,08,02,02,14,16.30
2007,08,02,02,15,16.30
2007,08,02,02,16,16.30
2007,08,02,02,17,16.30
2007,08,02,02,18,16.30
2007,08,02,02,19,16.30
2007,08,02,02,20,16.30
2007,08,02,02,21,16.30
2007,08,02,02,22,16.30
2007,08,02,02,23,16.30
2007,08,02,02,24,16.30
2007,08,02,02,25,16.30
2007,08,02,02,26,16.30
2007,08,02,02,27,16.30
2007,08,02,02,28,16.20
2007,08,02,02,29,16.20
2007,08,02,02,30,16.20
2007,08,02,02,31,16.20
2007,08,02,02,32,16.20
2007,08,02,02,33,16.20
2007,08,02,02,34,16.20
2007,08,02,02,35,16.20
2007,08,02,02,36,16.20
2007,08,02,02,37,16.20
2007,08,02,02,38,16.20
2007,08,02,02,39,16.20
2007,08,02,02,40,16.20
2007,08,02,02,41,16.30
2007,08,02,02,42,16.40
2007,08,02,02,43,16.40
2007,08,02,02,44,16.40
2007,08,02,02,45,16.40
2007,08,02,02,46,16.60
2007,08,02,02,47,16.60
2007,08,02,02,48,16.70
2007,08,02,02,49,16.70
2007,08,02,02,50,16.70
2007,08,02,02,51,16.70
2007,08,02,02,52,16.70
2007,08,02,02,53,16.70
2007,08,02,02,54,16.70
2007,08,02,02,55,16.70
2007,08,02,02,56,16.70
2007,08,02,02,57,16.70
2007,08,02,02,58,16.70
2007,08,02,02,59,16.70
2007,08,02,03,00,16.70
2007,08,02,03,01,16.70
2007,08,02,03,02,16.70
2007,08,02,03,03,16.70
2007,08,02,03,04,16.70
2007,08,02,03,05,16.60
2007,08,02,03,06,16.60
2007,08,02,03,07,16.50
2007,08,02,03,08,16.40
2007,08,02,03,09,16.40
2007,08,02,03,10,16.40
2007,08,02,03,11,16.30
2007,08,02,03,12,16.30
2007,08,02,03,13,16.20
2007,08,02,03,14,16.20
2007,08,02,03,15,16.20
2007,08,02,03,16,16.20
2007,08,02,03,17,16.20
2007,08,02,03,18,16.20
2007,08,02,03,19,16.10
2007,08,02,03,20,16.10
2007,08,02,03,21,16.10
2007,08,02,03,22,16.10
2007,08,02,03,23,16.10
2007,08,02,03,24,16.10
2007,08,02,03,25,16.10
2007,08,02,03,26,16.10
2007,08,02,03,27,16.10
2007,08,02,03,28,16.10
2007,08,02,03,29,16.10
2007,08,02,03,30,16.00
2007,08,02,03,31,15.90
2007,08,02,03,32,15.90
2007,08,02,03,33,15.80
2007,08,02,03,34,15.80
2007,08,02,03,35,15.80
2007,08,02,03,36,15.80
2007,08,02,03,37,15.70
2007,08,02,03,38,15.60
2007,08,02,03,39,15.60
2007,08,02,03,40,15.50
2007,08,02,03,41,15.50
2007,08,02,03,42,15.40
2007,08,02,03,43,15.40
2007,08,02,03,44,15.30
2007,08,02,03,45,15.30
2007,08,02,03,46,15.20
2007,08,02,03,47,15.20
2007,08,02,03,48,15.10
2007,08,02,03,49,15.00
2007,08,02,03,50,15.00
2007,08,02,03,51,14.90
2007,08,02,03,52,14.90
2007,08,02,03,53,14.80
2007,08,02,03,54,14.80
2007,08,02,03,55,14.80
2007,08,02,03,56,14.70
2007,08,02,03,57,14.70
2007,08,02,03,58,14.60
2007,08,02,03,59,14.60
2007,08,02,04,00,14.60
2007,08,02,04,01,14.50
2007,08,02,04,02,14.50
2007,08,02,04,03,14.50
2007,08,02,04,04,14.40
2007,08,02,04,05,14.40
2007,08,02,04,06,14.40
2007,08,02,04,07,14.30
2007,08,02,04,08,14.30
2007,08,02,04,09,14.20
2007,08,02,04,10,14.20
2007,08,02,04,11,14.20
2007,08,02,04,12,14.20
2007,08,02,04,13,14.20
2007,08,02,04,14,14.20
2007,08,02,04,15,14.20
2007,08,02,04,16,14.20
2007,08,02,04,17,14.20
2007,08,02,04,18,14.20
2007,08,02,04,19,14.20
2007,08,02,04,20,14.10
2007,08,02,04,21,14.10
2007,08,02,04,22,14.10
2007,08,02,04,23,14.10
2007,08,02,04,24,14.10
2007,08,02,04,25,14.00
2007,08,02,04,26,14.00
2007,08,02,04,27,14.00
2007,08,02,04,28,14.00
2007,08,02,04,29,14.00
2007,08,02,04,30,14.00
2007,08,02,04,31,14.00
2007,08,02,04,32,14.00
2007,08,02,04,33,14.00
2007,08,02,04,34,14.00
2007,08,02,04,35,14.00
2007,08,02,04,36,13.90
2007,08,02,04,37,13.90
2007,08,02,04,38,13.90
2007,08,02,04,39,13.90
2007,08,02,04,40,13.90
2007,08,02,04,41,13.90
2007,08,02,04,42,13.80
2007,08,02,04,43,13.80
2007,08,02,04,44,13.80
2007,08,02,04,45,13.70
2007,08,02,04,46,13.70
2007,08,02,04,47,13.70
2007,08,02,04,48,13.70
2007,08,02,04,49,13.70
2007,08,02,04,50,13.70
2007,08,02,04,51,13.60
2007,08,02,04,52,13.60
2007,08,02,04,53,13.50
2007,08,02,04,54,13.50
2007,08,02,04,55,13.50
2007,08,02,04,56,13.40
2007,08,02,04,57,13.40
2007,08,02,04,58,13.30
2007,08,02,04,59,13.30
2007,08,02,05,00,13.30
2007,08,02,05,01,13.30
2007,08,02,05,02,13.20
2007,08,02,05,03,13.20
2007,08,02,05,04,13.20
2007,08,02,05,05,13.20
2007,08,02,05,06,13.30
2007,08,02,05,07,13.30
2007,08,02,05,08,13.20
2007,08,02,05,09,13.20
2007,08,02,05,10,13.20
2007,08,02,05,11,13.30
2007,08,02,05,12,13.30
2007,08,02,05,13,13.30
2007,08,02,05,14,13.30
2007,08,02,05,15,13.30
2007,08,02,05,16,13.30
2007,08,02,05,17,13.30
2007,08,02,05,18,13.30
2007,08,02,05,19,13.30
2007,08,02,05,20,13.30
2007,08,02,05,21,13.30
2007,08,02,05,22,13.30
2007,08,02,05,23,13.30
2007,08,02,05,24,13.30
2007,08,02,05,25,13.30
2007,08,02,05,26,13.30
2007,08,02,05,27,13.30
2007,08,02,05,28,13.30
2007,08,02,05,29,13.30
2007,08,02,05,30,13.30
2007,08,02,05,31,13.30
2007,08,02,05,32,13.30
2007,08,02,05,33,13.30
2007,08,02,05,34,13.40
2007,08,02,05,35,13.40
2007,08,02,05,36,13.50
2007,08,02,05,37,13.50
2007,08,02,05,38,13.60
2007,08,02,05,39,13.60
2007,08,02,05,40,13.60
2007,08,02,05,41,13.60
2007,08,02,05,42,13.60
2007,08,02,05,43,13.60
2007,08,02,05,44,13.60
2007,08,02,05,45,13.50
2007,08,02,05,46,13.50
2007,08,02,05,47,13.50
2007,08,02,05,48,13.40
2007,08,02,05,49,13.40
2007,08,02,05,50,13.40
2007,08,02,05,51,13.30
2007,08,02,05,52,13.30
2007,08,02,05,53,13.30
2007,08,02,05,54,13.30
2007,08,02,05,55,13.30
2007,08,02,05,56,13.30
2007,08,02,05,57,13.30
2007,08,02,05,58,13.30
2007,08,02,05,59,13.30
2007,08,02,06,00,13.30
2007,08,02,06,01,13.30
2007,08,02,06,02,13.30
2007,08,02,06,03,13.30
2007,08,02,06,04,13.40
2007,08,02,06,05,13.40
2007,08,02,06,06,13.40
2007,08,02,06,07,13.50
2007,08,02,06,08,13.50
2007,08,02,06,09,13.50
2007,08,02,06,10,13.60
2007,08,02,06,11,13.60
2007,08,02,06,12,13.60
2007,08,02,06,13,13.60
2007,08,02,06,14,13.60
2007,08,02,06,15,13.70
2007,08,02,06,16,13.70
2007,08,02,06,17,13.70
2007,08,02,06,18,13.70
2007,08,02,06,19,13.80
2007,08,02,06,20,13.80
2007,08,02,06,21,13.90
2007,08,02,06,22,13.90
2007,08,02,06,23,14.00
2007,08,02,06,24,14.00
2007,08,02,06,25,14.10
2007,08,02,06,26,14.10
2007,08,02,06,27,14.10
2007,08,02,06,28,14.10
2007,08,02,06,29,14.10
2007,08,02,06,30,14.00
2007,08,02,06,31,14.00
2007,08,02,06,32,13.90
2007,08,02,06,33,13.90
2007,08,02,06,34,13.90
2007,08,02,06,35,13.90
2007,08,02,06,36,13.90
2007,08,02,06,37,13.90
2007,08,02,06,38,13.90
2007,08,02,06,39,13.90
2007,08,02,06,40,13.90
2007,08,02,06,41,13.90
2007,08,02,06,42,13.80
2007,08,02,06,43,13.80
2007,08,02,06,44,13.80
2007,08,02,06,45,13.80
2007,08,02,06,46,13.80
2007,08,02,06,47,13.80
2007,08,02,06,48,13.80
2007,08,02,06,49,13.80
2007,08,02,06,50,13.80
2007,08,02,06,51,13.80
2007,08,02,06,52,13.80
2007,08,02,06,53,13.90
2007,08,02,06,54,14.00
2007,08,02,06,55,14.00
2007,08,02,06,56,14.00
2007,08,02,06,57,14.10
2007,08,02,06,58,14.20
2007,08,02,06,59,14.20
2007,08,02,07,00,14.30
2007,08,02,07,01,14.40
2007,08,02,07,02,14.40
2007,08,02,07,03,14.40
2007,08,02,07,04,14.30
2007,08,02,07,05,14.30
2007,08,02,07,06,14.40
2007,08,02,07,07,14.40
2007,08,02,07,08,14.30
2007,08,02,07,09,14.30
2007,08,02,07,10,14.30
2007,08,02,07,11,14.30
2007,08,02,07,12,14.40
2007,08,02,07,13,14.40
2007,08,02,07,14,14.40
2007,08,02,07,15,14.50
2007,08,02,07,16,14.50
2007,08,02,07,17,14.60
2007,08,02,07,18,14.70
2007,08,02,07,19,14.80
2007,08,02,07,20,14.90
2007,08,02,07,21,15.00
2007,08,02,07,22,15.10
2007,08,02,07,23,15.20
2007,08,02,07,24,15.30
2007,08,02,07,25,15.40
2007,08,02,07,26,15.50
2007,08,02,07,27,15.60
2007,08,02,07,28,15.80
2007,08,02,07,29,15.80
2007,08,02,07,30,15.80
2007,08,02,07,31,15.80
2007,08,02,07,32,15.80
2007,08,02,07,33,15.80
2007,08,02,07,34,15.90
2007,08,02,07,35,16.00
2007,08,02,07,36,16.10
2007,08,02,07,37,16.10
2007,08,02,07,38,16.20
2007,08,02,07,39,16.20
2007,08,02,07,40,16.30
2007,08,02,07,41,16.40
2007,08,02,07,42,16.40
2007,08,02,07,43,16.40
2007,08,02,07,44,16.40
2007,08,02,07,45,16.40
2007,08,02,07,46,16.40
2007,08,02,07,47,16.30
2007,08,02,07,48,16.30
2007,08,02,07,49,16.20
2007,08,02,07,50,16.20
2007,08,02,07,51,16.20
2007,08,02,07,52,16.20
2007,08,02,07,53,16.20
2007,08,02,07,54,16.10
2007,08,02,07,55,16.10
2007,08,02,07,56,16.20
2007,08,02,07,57,16.20
2007,08,02,07,58,16.30
2007,08,02,07,59,16.30
2007,08,02,08,00,16.30
2007,08,02,08,01,16.30
2007,08,02,08,02,16.30
2007,08,02,08,03,16.30
2007,08,02,08,04,16.30
2007,08,02,08,05,16.30
2007,08,02,08,06,16.30
2007,08,02,08,07,16.30
2007,08,02,08,08,16.30
2007,08,02,08,09,16.30
2007,08,02,08,10,16.30
2007,08,02,08,11,16.30
2007,08,02,08,12,16.30
2007,08,02,08,13,16.30
2007,08,02,08,14,16.40
2007,08,02,08,15,16.40
2007,08,02,08,16,16.40
2007,08,02,08,17,16.40
2007,08,02,08,18,16.40
2007,08,02,08,19,16.50
2007,08,02,08,20,16.60
2007,08,02,08,21,16.60
2007,08,02,08,22,16.70
2007,08,02,08,23,16.70
2007,08,02,08,24,16.70
2007,08,02,08,25,16.70
2007,08,02,08,26,16.70
2007,08,02,08,27,16.80
2007,08,02,08,28,16.80
2007,08,02,08,29,16.90
2007,08,02,08,30,16.90
2007,08,02,08,31,16.90
2007,08,02,08,32,17.00
2007,08,02,08,33,17.00
2007,08,02,08,34,17.00
2007,08,02,08,35,17.00
2007,08,02,08,36,17.10
2007,08,02,08,37,17.10
2007,08,02,08,38,17.20
2007,08,02,08,39,17.20
2007,08,02,08,40,17.20
2007,08,02,08,41,17.20
2007,08,02,08,42,17.20
2007,08,02,08,43,17.20
2007,08,02,08,44,17.20
2007,08,02,08,45,17.20
2007,08,02,08,46,17.20
2007,08,02,08,47,17.20
2007,08,02,08,48,17.20
2007,08,02,08,49,17.20
2007,08,02,08,50,17.30
2007,08,02,08,51,17.30
2007,08,02,08,52,17.30
2007,08,02,08,53,17.40
2007,08,02,08,54,17.50
2007,08,02,08,55,17.50
2007,08,02,08,56,17.70
2007,08,02,08,57,17.80
2007,08,02,08,58,18.00
2007,08,02,08,59,18.10
2007,08,02,09,00,18.20
2007,08,02,09,01,18.20
2007,08,02,09,02,18.30
2007,08,02,09,03,18.30
2007,08,02,09,04,18.40
2007,08,02,09,05,18.40
2007,08,02,09,06,18.30
2007,08,02,09,07,18.30
2007,08,02,09,08,18.30
2007,08,02,09,09,18.30
2007,08,02,09,10,18.30
2007,08,02,09,11,18.30
2007,08,02,09,12,18.30
2007,08,02,09,13,18.20
2007,08,02,09,14,18.20
2007,08,02,09,15,18.20
2007,08,02,09,16,18.20
2007,08,02,09,17,18.10
2007,08,02,09,18,18.10
2007,08,02,09,19,18.20
2007,08,02,09,20,18.20
2007,08,02,09,21,18.20
2007,08,02,09,22,18.20
2007,08,02,09,23,18.30
2007,08,02,09,24,18.40
2007,08,02,09,25,18.40
2007,08,02,09,26,18.50
2007,08,02,09,27,18.50
2007,08,02,09,28,18.60
2007,08,02,09,29,18.60
2007,08,02,09,30,18.70
2007,08,02,09,31,18.70
2007,08,02,09,32,18.80
2007,08,02,09,33,18.70
2007,08,02,09,34,18.70
2007,08,02,09,35,18.60
2007,08,02,09,36,18.60
2007,08,02,09,37,18.60
2007,08,02,09,38,18.60
2007,08,02,09,39,18.60
2007,08,02,09,40,18.50
2007,08,02,09,41,18.50
2007,08,02,09,42,18.50
2007,08,02,09,43,18.40
2007,08,02,09,44,18.30
2007,08,02,09,45,18.20
2007,08,02,09,46,18.20
2007,08,02,09,47,18.10
2007,08,02,09,48,17.90
2007,08,02,09,49,17.90
2007,08,02,09,50,17.90
2007,08,02,09,51,17.80
2007,08,02,09,52,17.80
2007,08,02,09,53,17.70
2007,08,02,09,54,17.60
2007,08,02,09,55,17.60
2007,08,02,09,56,17.60
2007,08,02,09,57,17.50
2007,08,02,09,58,17.40
2007,08,02,09,59,17.30
2007,08,02,10,00,17.40
2007,08,02,10,01,17.40
2007,08,02,10,02,17.40
2007,08,02,10,03,17.40
2007,08,02,10,04,17.40
2007,08,02,10,05,17.40
2007,08,02,10,06,17.40
2007,08,02,10,07,17.40
2007,08,02,10,08,17.40
2007,08,02,10,09,17.40
2007,08,02,10,10,17.50
2007,08,02,10,11,17.50
2007,08,02,10,12,17.60
2007,08,02,10,13,17.60
2007,08,02,10,14,17.60
2007,08,02,10,15,17.60
2007,08,02,10,16,17.60
2007,08,02,10,17,17.70
2007,08,02,10,18,17.70
2007,08,02,10,19,17.80
2007,08,02,10,20,17.80
2007,08,02,10,21,17.90
2007,08,02,10,22,17.90
2007,08,02,10,23,17.90
2007,08,02,10,24,17.90
2007,08,02,10,25,17.80
2007,08,02,10,26,17.80
2007,08,02,10,27,17.70
2007,08,02,10,28,17.70
2007,08,02,10,29,17.70
2007,08,02,10,30,17.70
2007,08,02,10,31,17.80
2007,08,02,10,32,17.90
2007,08,02,10,33,17.90
2007,08,02,10,34,18.00
2007,08,02,10,35,18.10
2007,08,02,10,36,18.20
2007,08,02,10,37,18.20
2007,08,02,10,38,18.30
2007,08,02,10,39,18.30
2007,08,02,10,40,18.40
2007,08,02,10,41,18.50
2007,08,02,10,42,18.60
2007,08,02,10,43,18.70
2007,08,02,10,44,18.80
2007,08,02,10,45,18.80
2007,08,02,10,46,18.90
2007,08,02,10,47,19.00
2007,08,02,10,48,19.10
2007,08,02,10,49,19.20
2007,08,02,10,50,19.20
2007,08,02,10,51,19.30
2007,08,02,10,52,19.30
2007,08,02,10,53,19.40
2007,08,02,10,54,19.40
2007,08,02,10,55,19.50
2007,08,02,10,56,19.50
2007,08,02,10,57,19.60
2007,08,02,10,58,19.60
2007,08,02,10,59,19.70
2007,08,02,11,00,19.80
2007,08,02,11,01,19.80
2007,08,02,11,02,19.80
2007,08,02,11,03,19.80
2007,08,02,11,04,19.80
2007,08,02,11,05,19.70
2007,08,02,11,06,19.70
2007,08,02,11,07,19.70
2007,08,02,11,08,19.70
2007,08,02,11,09,19.70
2007,08,02,11,10,19.70
2007,08,02,11,11,19.70
2007,08,02,11,12,19.70
2007,08,02,11,13,19.80
2007,08,02,11,14,19.70
2007,08,02,11,15,19.70
2007,08,02,11,16,19.80
2007,08,02,11,17,19.80
2007,08,02,11,18,19.90
2007,08,02,11,19,19.90
2007,08,02,11,20,19.90
2007,08,02,11,21,19.90
2007,08,02,11,22,19.80
2007,08,02,11,23,19.80
2007,08,02,11,24,19.80
2007,08,02,11,25,19.90
2007,08,02,11,26,19.90
2007,08,02,11,27,19.90
2007,08,02,11,28,19.90
2007,08,02,11,29,19.90
2007,08,02,11,30,19.80
2007,08,02,11,31,19.80
2007,08,02,11,32,19.80
2007,08,02,11,33,19.80
2007,08,02,11,34,19.70
2007,08,02,11,35,19.60
2007,08,02,11,36,19.70
2007,08,02,11,37,19.70
2007,08,02,11,38,19.70
2007,08,02,11,39,19.90
2007,08,02,11,40,19.90
2007,08,02,11,41,19.90
2007,08,02,11,42,20.00
2007,08,02,11,43,20.00
2007,08,02,11,44,19.90
2007,08,02,11,45,19.90
2007,08,02,11,46,19.90
2007,08,02,11,47,19.90
2007,08,02,11,48,20.00
2007,08,02,11,49,20.10
2007,08,02,11,50,20.10
2007,08,02,11,51,20.10
2007,08,02,11,52,20.10
2007,08,02,11,53,20.20
2007,08,02,11,54,20.20
2007,08,02,11,55,20.20
2007,08,02,11,56,20.20
2007,08,02,11,57,20.20
2007,08,02,11,58,20.30
2007,08,02,11,59,20.40
2007,08,02,12,00,20.50
2007,08,02,12,01,20.40
2007,08,02,12,02,20.40
2007,08,02,12,03,20.30
2007,08,02,12,04,20.30
2007,08,02,12,05,20.40
2007,08,02,12,06,20.50
2007,08,02,12,07,20.50
2007,08,02,12,08,20.50
2007,08,02,12,09,20.50
2007,08,02,12,10,20.50
2007,08,02,12,11,20.50
2007,08,02,12,12,20.50
2007,08,02,12,13,20.50
2007,08,02,12,14,20.50
2007,08,02,12,15,20.50
2007,08,02,12,16,20.50
2007,08,02,12,17,20.50
2007,08,02,12,18,20.50
2007,08,02,12,19,20.40
2007,08,02,12,20,20.30
2007,08,02,12,21,20.20
2007,08,02,12,22,20.20
2007,08,02,12,23,20.10
2007,08,02,12,24,20.10
2007,08,02,12,25,19.90
2007,08,02,12,26,19.80
2007,08,02,12,27,19.70
2007,08,02,12,28,19.60
2007,08,02,12,29,19.60
2007,08,02,12,30,19.50
2007,08,02,12,31,19.20
2007,08,02,12,32,19.00
2007,08,02,12,33,18.80
2007,08,02,12,34,18.60
2007,08,02,12,35,18.50
2007,08,02,12,36,18.20
2007,08,02,12,37,18.00
2007,08,02,12,38,17.70
2007,08,02,12,39,17.50
2007,08,02,12,40,17.30
2007,08,02,12,41,17.30
2007,08,02,12,42,17.10
2007,08,02,12,43,16.90
2007,08,02,12,44,16.80
2007,08,02,12,45,16.60
2007,08,02,12,46,16.50
2007,08,02,12,47,16.40
2007,08,02,12,48,16.30
2007,08,02,12,49,16.30
2007,08,02,12,50,16.30
2007,08,02,12,51,16.40
2007,08,02,12,52,16.40
2007,08,02,12,53,16.30
2007,08,02,12,54,16.20
2007,08,02,12,55,16.20
2007,08,02,12,56,16.10
2007,08,02,12,57,16.10
2007,08,02,12,58,16.10
2007,08,02,12,59,16.10
2007,08,02,13,00,16.20
2007,08,02,13,01,16.20
2007,08,02,13,02,16.30
2007,08,02,13,03,16.40
2007,08,02,13,04,16.40
2007,08,02,13,05,16.40
2007,08,02,13,06,16.40
2007,08,02,13,07,16.30
2007,08,02,13,08,16.30
2007,08,02,13,09,16.20
2007,08,02,13,10,16.20
2007,08,02,13,11,16.20
2007,08,02,13,12,16.20
2007,08,02,13,13,16.20
2007,08,02,13,14,16.30
2007,08,02,13,15,16.30
2007,08,02,13,16,16.30
2007,08,02,13,17,16.30
2007,08,02,13,18,16.30
2007,08,02,13,19,16.20
2007,08,02,13,20,16.10
2007,08,02,13,21,16.20
2007,08,02,13,22,16.30
2007,08,02,13,23,16.50
2007,08,02,13,24,16.70
2007,08,02,13,25,16.80
2007,08,02,13,26,16.80
2007,08,02,13,27,16.90
2007,08,02,13,28,16.90
2007,08,02,13,29,17.00
2007,08,02,13,30,17.20
2007,08,02,13,31,17.30
2007,08,02,13,32,17.50
2007,08,02,13,33,17.60
2007,08,02,13,34,17.70
2007,08,02,13,35,17.70
2007,08,02,13,36,17.70
2007,08,02,13,37,17.60
2007,08,02,13,38,17.60
2007,08,02,13,39,17.60
2007,08,02,13,40,17.60
2007,08,02,13,41,17.60
2007,08,02,13,42,17.70
2007,08,02,13,43,17.80
2007,08,02,13,44,18.00
2007,08,02,13,45,18.10
2007,08,02,13,46,18.20
2007,08,02,13,47,18.20
2007,08,02,13,48,18.40
2007,08,02,13,49,18.50
2007,08,02,13,50,18.60
2007,08,02,13,51,18.70
2007,08,02,13,52,18.70
2007,08,02,13,53,18.80
2007,08,02,13,54,18.90
2007,08,02,13,55,19.00
2007,08,02,13,56,19.10
2007,08,02,13,57,19.10
2007,08,02,13,58,19.10
2007,08,02,13,59,19.10
2007,08,02,14,00,19.30
2007,08,02,14,01,19.30
2007,08,02,14,02,19.30
2007,08,02,14,03,19.40
2007,08,02,14,04,19.40
2007,08,02,14,05,19.50
2007,08,02,14,06,19.60
2007,08,02,14,07,19.60
2007,08,02,14,08,19.40
2007,08,02,14,09,19.40
2007,08,02,14,10,19.30
2007,08,02,14,11,19.30
2007,08,02,14,12,19.40
2007,08,02,14,13,19.40
2007,08,02,14,14,19.40
2007,08,02,14,15,19.50
2007,08,02,14,16,19.60
2007,08,02,14,17,19.60
2007,08,02,14,18,19.80
2007,08,02,14,19,19.90
2007,08,02,14,20,20.20
2007,08,02,14,21,20.40
2007,08,02,14,22,20.60
2007,08,02,14,23,20.80
2007,08,02,14,24,21.00
2007,08,02,14,25,21.10
2007,08,02,14,26,21.20
2007,08,02,14,27,21.20
2007,08,02,14,28,21.20
2007,08,02,14,29,21.30
2007,08,02,14,30,21.40
2007,08,02,14,31,21.50
2007,08,02,14,32,21.70
2007,08,02,14,33,21.90
2007,08,02,14,34,22.00
2007,08,02,14,35,22.10
2007,08,02,14,36,22.20
2007,08,02,14,37,22.30
2007,08,02,14,38,22.30
2007,08,02,14,39,22.30
2007,08,02,14,40,22.30
2007,08,02,14,41,22.20
2007,08,02,14,42,22.20
2007,08,02,14,43,22.10
2007,08,02,14,44,22.00
2007,08,02,14,45,22.00
2007,08,02,14,46,22.10
2007,08,02,14,47,22.10
2007,08,02,14,48,22.00
2007,08,02,14,49,21.80
2007,08,02,14,50,21.70
2007,08,02,14,51,21.60
2007,08,02,14,52,21.60
2007,08,02,14,53,21.60
2007,08,02,14,54,21.70
2007,08,02,14,55,21.80
2007,08,02,14,56,21.90
2007,08,02,14,57,21.90
2007,08,02,14,58,21.90
2007,08,02,14,59,21.90
2007,08,02,15,00,22.00
2007,08,02,15,01,22.20
2007,08,02,15,02,22.20
2007,08,02,15,03,22.20
2007,08,02,15,04,22.30
2007,08,02,15,05,22.40
2007,08,02,15,06,22.50
2007,08,02,15,07,22.50
2007,08,02,15,08,22.30
2007,08,02,15,09,22.20
2007,08,02,15,10,22.10
2007,08,02,15,11,22.00
2007,08,02,15,12,21.90
2007,08,02,15,13,21.60
2007,08,02,15,14,21.40
2007,08,02,15,15,21.30
2007,08,02,15,16,21.20
2007,08,02,15,17,21.20
2007,08,02,15,18,21.10
2007,08,02,15,19,21.10
2007,08,02,15,20,21.10
2007,08,02,15,21,21.00
2007,08,02,15,22,20.90
2007,08,02,15,23,20.90
2007,08,02,15,24,20.90
2007,08,02,15,25,20.80
2007,08,02,15,26,20.80
2007,08,02,15,27,20.70
2007,08,02,15,28,20.50
2007,08,02,15,29,20.50
2007,08,02,15,30,20.50
2007,08,02,15,31,20.50
2007,08,02,15,32,20.40
2007,08,02,15,33,20.30
2007,08,02,15,34,20.40
2007,08,02,15,35,20.40
2007,08,02,15,36,20.40
2007,08,02,15,37,20.40
2007,08,02,15,38,20.50
2007,08,02,15,39,20.60
2007,08,02,15,40,20.60
2007,08,02,15,41,20.50
2007,08,02,15,42,20.50
2007,08,02,15,43,20.50
2007,08,02,15,44,20.40
2007,08,02,15,45,20.30
2007,08,02,15,46,20.20
2007,08,02,15,47,20.20
2007,08,02,15,48,20.30
2007,08,02,15,49,20.30
2007,08,02,15,50,20.40
2007,08,02,15,51,20.50
2007,08,02,15,52,20.70
2007,08,02,15,53,20.90
2007,08,02,15,54,20.90
2007,08,02,15,55,21.00
2007,08,02,15,56,20.90
2007,08,02,15,57,20.90
2007,08,02,15,58,21.00
2007,08,02,15,59,20.80
2007,08,02,16,00,20.80
2007,08,02,16,01,20.80
2007,08,02,16,02,20.80
2007,08,02,16,03,20.80
2007,08,02,16,04,20.80
2007,08,02,16,05,20.80
2007,08,02,16,06,20.70
2007,08,02,16,07,20.70
2007,08,02,16,08,20.60
2007,08,02,16,09,20.60
2007,08,02,16,10,20.50
2007,08,02,16,11,20.40
2007,08,02,16,12,20.40
2007,08,02,16,13,20.50
2007,08,02,16,14,20.50
2007,08,02,16,15,20.60
2007,08,02,16,16,20.80
2007,08,02,16,17,20.80
2007,08,02,16,18,20.90
2007,08,02,16,19,21.00
2007,08,02,16,20,21.10
2007,08,02,16,21,21.20
2007,08,02,16,22,21.40
2007,08,02,16,23,21.50
2007,08,02,16,24,21.70
2007,08,02,16,25,21.90
2007,08,02,16,26,22.10
2007,08,02,16,27,22.20
2007,08,02,16,28,22.40
2007,08,02,16,29,22.50
2007,08,02,16,30,22.40
2007,08,02,16,31,22.30
2007,08,02,16,32,22.10
2007,08,02,16,33,21.80
2007,08,02,16,34,21.40
2007,08,02,16,35,21.10
2007,08,02,16,36,20.80
2007,08,02,16,37,20.70
2007,08,02,16,38,20.70
2007,08,02,16,39,20.60
2007,08,02,16,40,20.60
2007,08,02,16,41,20.60
2007,08,02,16,42,20.70
2007,08,02,16,43,20.80
2007,08,02,16,44,21.00
2007,08,02,16,45,21.20
2007,08,02,16,46,21.30
2007,08,02,16,47,21.30
2007,08,02,16,48,21.30
2007,08,02,16,49,21.30
2007,08,02,16,50,21.30
2007,08,02,16,51,21.30
2007,08,02,16,52,21.30
2007,08,02,16,53,21.30
2007,08,02,16,54,21.20
2007,08,02,16,55,21.00
2007,08,02,16,56,20.90
2007,08,02,16,57,20.80
2007,08,02,16,58,20.70
2007,08,02,16,59,20.60
2007,08,02,17,00,20.60
2007,08,02,17,01,20.70
2007,08,02,17,02,20.70
2007,08,02,17,03,20.60
2007,08,02,17,04,20.50
2007,08,02,17,05,20.50
2007,08,02,17,06,20.50
2007,08,02,17,07,20.50
2007,08,02,17,08,20.40
2007,08,02,17,09,20.30
2007,08,02,17,10,20.20
2007,08,02,17,11,20.20
2007,08,02,17,12,20.10
2007,08,02,17,13,20.00
2007,08,02,17,14,19.90
2007,08,02,17,15,19.80
2007,08,02,17,16,19.80
2007,08,02,17,17,19.80
2007,08,02,17,18,19.90
2007,08,02,17,19,19.80